sat.trackr.live / text

‹ back to catalog

STARLINK-30814

NORAD 58165 · 2023-166R

PAYLOAD ACTIVE UNKNOWN

§ Identity

Operator
Country
US
Launch date
2023-10-29
Launch site
AFWTR
Launch vehicle
Mass (kg)
RCS (m²)

Purposes: comms

External: N2YO · Heavens-Above · Gunter

§ Orbital elements

Epoch: 2026-05-24T17:14:46.671936Z

Period
94.10 min
Inclination
53.1606°
Eccentricity
0.0001124
Mean motion
15.30206794 rev/d
Perigee alt
474.4 km
Apogee alt
476.0 km
Semi-major
6,853.3 km
B*
8.2370e-5
RAAN
226.1873°
Arg perigee
81.4816°
Mean anomaly
278.6312°
Rev number
14,482

§ Raw data

STARLINK-308141 58165U 23166R   26144.71859574  .00002082  00000+0  82370-4 0  99912 58165  53.1606 226.1873 0001124  81.4816 278.6312 15.30206794144828

JSON: /api/v1/satellites/58165 · /tle

For live sub-satellite position, see the globe view (requires WebGL).

§ Visibility from observer

Set your observer location to see the next 7 days of passes ≥ 10°. The values pass through the URL so the page stays shareable.

No JS? Fill the form by hand. The geolocation button needs JavaScript.